Time,TemperatureF,DewpointF,PressureIn,WindDirection,WindDirectionDegrees,WindSpeedMPH,WindSpeedGustMPH,Humidity,HourlyPrecipIn,Conditions,Clouds,dailyrainin,SoftwareType,DateUTC
2013-01-10 00:01:00,35.0,29.0,-100.00,SE,137,3.0,5.0,80,0.00,,,-99.99,,2013-01-10 08:01:00,
2013-01-10 00:11:00,35.0,29.0,-100.00,SE,137,3.0,5.0,80,0.00,,,-99.99,,2013-01-10 08:11:00,
2013-01-10 00:22:00,35.0,30.0,-100.00,ENE,72,2.0,3.0,82,0.00,,,-99.99,,2013-01-10 08:22:00,
2013-01-10 00:32:00,35.0,30.0,-100.00,ENE,72,2.0,3.0,82,0.00,,,-99.99,,2013-01-10 08:32:00,
2013-01-10 00:42:00,34.0,29.0,-100.00,NE,35,2.0,4.0,82,0.00,,,-99.99,,2013-01-10 08:42:00,
2013-01-10 00:53:00,34.0,29.0,-100.00,NNE,14,3.0,5.0,81,0.00,,,-99.99,,2013-01-10 08:53:00,
2013-01-10 01:02:00,34.0,29.0,-100.00,NNE,14,3.0,5.0,81,0.00,,,-99.99,,2013-01-10 09:02:00,
2013-01-10 01:12:00,34.0,29.0,-100.00,NNW,346,5.0,8.0,82,0.00,,,-99.99,,2013-01-10 09:12:00,
2013-01-10 01:22:00,34.0,29.0,-100.00,NNW,346,5.0,8.0,82,0.00,,,-99.99,,2013-01-10 09:22:00,
2013-01-10 01:32:00,34.0,29.0,-100.00,NNW,346,5.0,8.0,82,0.00,,,-99.99,,2013-01-10 09:32:00,
2013-01-10 01:42:00,33.0,29.0,-100.00,NE,34,3.0,4.0,84,0.00,,,-99.99,,2013-01-10 09:42:00,
2013-01-10 01:52:00,33.0,29.0,-100.00,NW,316,3.0,4.0,86,0.00,,,-99.99,,2013-01-10 09:52:00,
2013-01-10 02:02:00,33.0,29.0,-100.00,NW,316,3.0,4.0,86,0.00,,,-99.99,,2013-01-10 10:02:00,
2013-01-10 02:12:00,32.0,29.0,-100.00,ENE,65,2.0,3.0,87,0.00,,,-99.99,,2013-01-10 10:12:00,
2013-01-10 02:22:00,32.0,29.0,-100.00,ENE,72,0.0,1.0,86,0.00,,,-99.99,,2013-01-10 10:22:00,
2013-01-10 02:30:00,31.0,28.0,-100.00,North,357,4.0,5.0,87,0.00,,,-99.99,,2013-01-10 10:30:00,
2013-01-10 02:32:00,32.0,29.0,-100.00,ENE,72,0.0,1.0,86,0.00,,,-99.99,,2013-01-10 10:32:00,
2013-01-10 02:42:00,31.0,28.0,-100.00,North,6,3.0,4.0,87,0.00,,,-99.99,,2013-01-10 10:42:00,
2013-01-10 02:52:00,31.0,28.0,-100.00,North,6,3.0,4.0,87,0.00,,,-99.99,,2013-01-10 10:52:00,
2013-01-10 03:02:00,31.0,28.0,-100.00,North,6,3.0,4.0,87,0.00,,,-99.99,,2013-01-10 11:02:00,
2013-01-10 03:12:00,31.0,28.0,-100.00,North,357,4.0,5.0,87,0.00,,,-99.99,,2013-01-10 11:12:00,
2013-01-10 03:22:00,31.0,28.0,-100.00,North,357,4.0,5.0,87,0.00,,,-99.99,,2013-01-10 11:22:00,
2013-01-10 03:43:00,30.0,27.0,-100.00,NW,320,2.0,3.0,88,0.00,,,-99.99,,2013-01-10 11:43:00,
2013-01-10 03:53:00,30.0,27.0,-100.00,NW,320,2.0,3.0,88,0.00,,,-99.99,,2013-01-10 11:53:00,
2013-01-10 04:02:00,30.0,27.0,-100.00,NW,320,2.0,3.0,88,0.00,,,-99.99,,2013-01-10 12:02:00,
2013-01-10 04:12:00,30.0,27.0,-100.00,SE,137,1.0,2.0,90,0.00,,,-99.99,,2013-01-10 12:12:00,
2013-01-10 04:22:00,30.0,28.0,-100.00,North,10,1.0,2.0,91,0.00,,,-99.99,,2013-01-10 12:22:00,
2013-01-10 04:32:00,30.0,28.0,-100.00,North,10,1.0,2.0,91,0.00,,,-99.99,,2013-01-10 12:32:00,
2013-01-10 04:42:00,30.0,28.0,-100.00,SSW,202,1.0,2.0,93,0.00,,,-99.99,,2013-01-10 12:42:00,
2013-01-10 04:53:00,30.0,28.0,-100.00,SSW,202,1.0,2.0,93,0.00,,,-99.99,,2013-01-10 12:53:00,
2013-01-10 05:02:00,30.0,28.0,-100.00,SSW,202,1.0,2.0,93,0.00,,,-99.99,,2013-01-10 13:02:00,
2013-01-10 05:11:00,30.0,28.0,-100.00,WNW,299,2.0,4.0,92,0.00,,,-99.99,,2013-01-10 13:11:00,
2013-01-10 05:22:00,30.0,28.0,-100.00,East,89,4.0,4.0,92,0.00,,,-99.99,,2013-01-10 13:22:00,
2013-01-10 05:32:00,30.0,28.0,-100.00,East,89,4.0,4.0,92,0.00,,,-99.99,,2013-01-10 13:32:00,
2013-01-10 05:42:00,30.0,27.0,-100.00,North,356,2.0,3.0,90,0.00,,,-99.99,,2013-01-10 13:42:00,
2013-01-10 05:53:00,29.0,27.0,-100.00,NNW,335,4.0,4.0,89,0.00,,,-99.99,,2013-01-10 13:53:00,
2013-01-10 06:02:00,29.0,27.0,-100.00,NNW,335,4.0,4.0,89,0.00,,,-99.99,,2013-01-10 14:02:00,
2013-01-10 06:12:00,29.0,27.0,-100.00,NNW,335,4.0,4.0,89,0.00,,,-99.99,,2013-01-10 14:12:00,
2013-01-10 06:22:00,29.0,26.0,-100.00,West,275,2.0,3.0,87,0.00,,,-99.99,,2013-01-10 14:22:00,
2013-01-10 06:32:00,29.0,26.0,-100.00,West,275,2.0,3.0,87,0.00,,,-99.99,,2013-01-10 14:32:00,
2013-01-10 06:43:00,29.0,27.0,-100.00,West,263,1.0,4.0,89,0.00,,,-99.99,,2013-01-10 14:43:00,
2013-01-10 06:53:00,29.0,27.0,-100.00,West,263,1.0,4.0,89,0.00,,,-99.99,,2013-01-10 14:53:00,
2013-01-10 07:02:00,29.0,27.0,-100.00,West,263,1.0,4.0,89,0.00,,,-99.99,,2013-01-10 15:02:00,
2013-01-10 07:12:00,30.0,26.0,-100.00,North,349,2.0,4.0,86,0.00,,,-99.99,,2013-01-10 15:12:00,
2013-01-10 07:22:00,30.0,26.0,-100.00,WNW,292,3.0,5.0,85,0.00,,,-99.99,,2013-01-10 15:22:00,
2013-01-10 07:32:00,30.0,26.0,-100.00,WNW,292,3.0,5.0,85,0.00,,,-99.99,,2013-01-10 15:32:00,
2013-01-10 07:43:00,29.0,26.0,-100.00,NNW,343,2.0,4.0,86,0.00,,,-99.99,,2013-01-10 15:43:00,
2013-01-10 07:53:00,29.0,25.0,-100.00,WNW,288,5.0,7.0,85,0.00,,,-99.99,,2013-01-10 15:53:00,
2013-01-10 08:02:00,29.0,25.0,-100.00,WNW,288,5.0,7.0,85,0.00,,,-99.99,,2013-01-10 16:02:00,
2013-01-10 08:12:00,29.0,25.0,-100.00,WNW,288,5.0,7.0,85,0.00,,,-99.99,,2013-01-10 16:12:00,
2013-01-10 08:22:00,29.0,25.0,-100.00,WNW,299,3.0,4.0,84,0.00,,,-99.99,,2013-01-10 16:22:00,
2013-01-10 08:30:00,29.0,25.0,-100.00,SE,127,4.0,6.0,88,0.00,,,-99.99,,2013-01-10 16:30:00,
2013-01-10 08:32:00,29.0,25.0,-100.00,WNW,299,3.0,4.0,84,0.00,,,-99.99,,2013-01-10 16:32:00,
2013-01-10 08:42:00,29.0,25.0,-100.00,WNW,289,2.0,5.0,85,0.00,,,-99.99,,2013-01-10 16:42:00,
2013-01-10 08:53:00,29.0,25.0,-100.00,SE,127,4.0,6.0,88,0.00,,,-99.99,,2013-01-10 16:53:00,
2013-01-10 09:00:00,29.0,26.0,-100.00,NNE,16,2.0,3.0,86,0.00,,,-99.99,,2013-01-10 17:00:00,
2013-01-10 09:02:00,29.0,25.0,-100.00,SE,127,4.0,6.0,88,0.00,,,-99.99,,2013-01-10 17:02:00,
2013-01-10 09:12:00,29.0,25.0,-100.00,SE,127,4.0,6.0,88,0.00,,,-99.99,,2013-01-10 17:12:00,
2013-01-10 09:22:00,29.0,25.0,-100.00,SE,127,4.0,6.0,88,0.00,,,-99.99,,2013-01-10 17:22:00,
2013-01-10 09:43:00,29.0,26.0,-100.00,NNE,16,2.0,3.0,86,0.00,,,-99.99,,2013-01-10 17:43:00,
2013-01-10 09:53:00,29.0,26.0,-100.00,NNE,16,2.0,3.0,86,0.00,,,-99.99,,2013-01-10 17:53:00,
2013-01-10 10:12:00,30.0,25.0,-100.00,NNE,21,2.0,4.0,83,0.00,,,-99.99,,2013-01-10 18:12:00,
2013-01-10 10:22:00,30.0,25.0,-100.00,NNE,21,2.0,4.0,83,0.00,,,-99.99,,2013-01-10 18:22:00,
2013-01-10 10:33:00,30.0,25.0,-100.00,NNE,21,2.0,4.0,83,0.00,,,-99.99,,2013-01-10 18:33:00,
2013-01-10 10:43:00,30.0,25.0,-100.00,North,357,2.0,4.0,82,0.00,,,-99.99,,2013-01-10 18:43:00,
2013-01-10 10:53:00,30.0,25.0,-100.00,North,0,3.0,5.0,83,0.00,,,-99.99,,2013-01-10 18:53:00,
2013-01-10 11:02:00,30.0,25.0,-100.00,North,0,3.0,5.0,83,0.00,,,-99.99,,2013-01-10 19:02:00,
2013-01-10 11:12:00,30.0,25.0,-100.00,NNW,336,3.0,5.0,82,0.00,,,-99.99,,2013-01-10 19:12:00,
2013-01-10 11:23:00,30.0,25.0,-100.00,NNW,336,3.0,5.0,82,0.00,,,-99.99,,2013-01-10 19:23:00,
2013-01-10 11:32:00,30.0,25.0,-100.00,NNW,336,3.0,5.0,82,0.00,,,-99.99,,2013-01-10 19:32:00,
2013-01-10 11:42:00,30.0,25.0,-100.00,NNW,339,2.0,5.0,82,0.00,,,-99.99,,2013-01-10 19:42:00,
2013-01-10 11:53:00,30.0,25.0,-100.00,NNW,339,2.0,5.0,82,0.00,,,-99.99,,2013-01-10 19:53:00,
2013-01-10 12:02:00,30.0,25.0,-100.00,NNW,339,2.0,5.0,82,0.00,,,-99.99,,2013-01-10 20:02:00,
2013-01-10 12:12:00,30.0,25.0,-100.00,NNW,335,3.0,4.0,81,0.00,,,-99.99,,2013-01-10 20:12:00,
2013-01-10 12:22:00,30.0,25.0,-100.00,NNW,344,3.0,5.0,80,0.00,,,-99.99,,2013-01-10 20:22:00,
2013-01-10 12:32:00,30.0,25.0,-100.00,NNW,344,3.0,5.0,80,0.00,,,-99.99,,2013-01-10 20:32:00,
2013-01-10 12:42:00,30.0,25.0,-100.00,WNW,299,5.0,8.0,81,0.00,,,-99.99,,2013-01-10 20:42:00,
2013-01-10 12:53:00,30.0,25.0,-100.00,WNW,299,5.0,8.0,81,0.00,,,-99.99,,2013-01-10 20:53:00,
2013-01-10 13:03:00,30.0,25.0,-100.00,WNW,299,5.0,8.0,81,0.00,,,-99.99,,2013-01-10 21:03:00,
2013-01-10 13:12:00,31.0,25.0,-100.00,NW,322,4.0,5.0,81,0.00,,,-99.99,,2013-01-10 21:12:00,
2013-01-10 13:23:00,31.0,26.0,-100.00,NW,319,4.0,8.0,82,0.00,,,-99.99,,2013-01-10 21:23:00,
2013-01-10 13:33:00,31.0,26.0,-100.00,NW,319,4.0,8.0,82,0.00,,,-99.99,,2013-01-10 21:33:00,
2013-01-10 13:42:00,31.0,26.0,-100.00,WNW,298,6.0,9.0,84,0.00,,,-99.99,,2013-01-10 21:42:00,
2013-01-10 13:53:00,31.0,26.0,-100.00,WNW,298,6.0,9.0,84,0.00,,,-99.99,,2013-01-10 21:53:00,
2013-01-10 14:03:00,31.0,26.0,-100.00,WNW,298,6.0,9.0,84,0.00,,,-99.99,,2013-01-10 22:03:00,
2013-01-10 14:12:00,31.0,26.0,-100.00,WNW,296,5.0,7.0,83,0.00,,,-99.99,,2013-01-10 22:12:00,
2013-01-10 14:24:00,30.0,26.0,-100.00,West,277,4.0,5.0,84,0.00,,,-99.99,,2013-01-10 22:24:00,
2013-01-10 14:32:00,30.0,26.0,-100.00,West,277,4.0,5.0,84,0.00,,,-99.99,,2013-01-10 22:32:00,
2013-01-10 14:44:00,30.0,26.0,-100.00,West,275,4.0,6.0,83,0.00,,,-99.99,,2013-01-10 22:44:00,
2013-01-10 15:02:00,31.0,27.0,-100.00,NW,305,3.0,5.0,84,0.00,,,-99.99,,2013-01-10 23:02:00,
2013-01-10 15:12:00,31.0,27.0,-100.00,NW,305,3.0,5.0,84,0.00,,,-99.99,,2013-01-10 23:12:00,
2013-01-10 15:22:00,30.0,26.0,-100.00,WNW,287,6.0,7.0,84,0.00,,,-99.99,,2013-01-10 23:22:00,
2013-01-10 15:32:00,30.0,26.0,-100.00,WNW,287,6.0,7.0,84,0.00,,,-99.99,,2013-01-10 23:32:00,
2013-01-10 15:42:00,31.0,27.0,-100.00,WNW,302,6.0,7.0,85,0.00,,,-99.99,,2013-01-10 23:42:00,
2013-01-10 15:53:00,31.0,27.0,-100.00,WNW,289,5.0,7.0,86,0.00,,,-99.99,,2013-01-10 23:53:00,
2013-01-10 16:02:00,31.0,27.0,-100.00,WNW,289,5.0,7.0,86,0.00,,,-99.99,,2013-01-11 00:02:00,
2013-01-10 16:12:00,31.0,27.0,-100.00,WNW,289,5.0,7.0,86,0.00,,,-99.99,,2013-01-11 00:12:00,
2013-01-10 16:22:00,30.0,27.0,-100.00,WNW,285,7.0,8.0,88,0.00,,,-99.99,,2013-01-11 00:22:00,
2013-01-10 16:32:00,30.0,27.0,-100.00,WNW,285,7.0,8.0,88,0.00,,,-99.99,,2013-01-11 00:32:00,
2013-01-10 16:42:00,30.0,28.0,-100.00,WNW,285,8.0,10.0,92,0.00,,,-99.99,,2013-01-11 00:42:00,
2013-01-10 16:53:00,30.0,28.0,-100.00,WNW,291,7.0,9.0,91,0.00,,,-99.99,,2013-01-11 00:53:00,
2013-01-10 17:02:00,30.0,28.0,-100.00,WNW,291,7.0,9.0,91,0.00,,,-99.99,,2013-01-11 01:02:00,
2013-01-10 17:12:00,30.0,28.0,-100.00,WNW,295,7.0,9.0,93,0.00,,,-99.99,,2013-01-11 01:12:00,
2013-01-10 17:22:00,30.0,29.0,-100.00,WNW,299,6.0,9.0,94,0.00,,,-99.99,,2013-01-11 01:22:00,
2013-01-10 17:33:00,30.0,29.0,-100.00,WNW,299,6.0,9.0,94,0.00,,,-99.99,,2013-01-11 01:33:00,
2013-01-10 17:42:00,30.0,29.0,-100.00,WNW,292,6.0,9.0,96,0.00,,,-99.99,,2013-01-11 01:42:00,
2013-01-10 17:53:00,29.0,28.0,-100.00,WNW,288,6.0,8.0,97,0.04,,,-99.99,,2013-01-11 01:53:00,
2013-01-10 18:02:00,29.0,28.0,-100.00,WNW,288,6.0,8.0,97,0.04,,,-99.99,,2013-01-11 02:02:00,
2013-01-10 18:12:00,29.0,28.0,-100.00,WNW,288,6.0,8.0,97,0.04,,,-99.99,,2013-01-11 02:12:00,
2013-01-10 18:22:00,29.0,28.0,-100.00,WNW,285,6.0,8.0,97,0.00,,,-99.99,,2013-01-11 02:22:00,
2013-01-10 18:32:00,29.0,28.0,-100.00,WNW,285,6.0,8.0,97,0.00,,,-99.99,,2013-01-11 02:32:00,
2013-01-10 18:43:00,29.0,28.0,-100.00,WNW,288,5.0,7.0,98,0.04,,,-99.99,,2013-01-11 02:43:00,
2013-01-10 18:54:00,29.0,28.0,-100.00,WNW,284,5.0,7.0,98,0.00,,,-99.99,,2013-01-11 02:54:00,
2013-01-10 19:02:00,29.0,28.0,-100.00,WNW,284,5.0,7.0,98,0.00,,,-99.99,,2013-01-11 03:02:00,
2013-01-10 19:12:00,28.0,28.0,-100.00,West,280,9.0,12.0,98,0.04,,,-99.99,,2013-01-11 03:12:00,
2013-01-10 19:22:00,28.0,28.0,-100.00,West,280,9.0,12.0,98,0.04,,,-99.99,,2013-01-11 03:22:00,
2013-01-10 19:33:00,28.0,28.0,-100.00,West,280,9.0,12.0,98,0.04,,,-99.99,,2013-01-11 03:33:00,
2013-01-10 19:42:00,28.0,27.0,-100.00,West,271,7.0,11.0,98,0.00,,,-99.99,,2013-01-11 03:42:00,
2013-01-10 19:53:00,28.0,27.0,-100.00,West,271,7.0,11.0,98,0.00,,,-99.99,,2013-01-11 03:53:00,
2013-01-10 20:02:00,28.0,27.0,-100.00,West,271,7.0,11.0,98,0.00,,,-99.99,,2013-01-11 04:02:00,
2013-01-10 20:12:00,28.0,27.0,-100.00,West,270,8.0,11.0,98,0.00,,,-99.99,,2013-01-11 04:12:00,
2013-01-10 20:22:00,27.0,27.0,-100.00,West,278,7.0,9.0,98,0.00,,,-99.99,,2013-01-11 04:22:00,
2013-01-10 20:32:00,27.0,27.0,-100.00,West,278,7.0,9.0,98,0.00,,,-99.99,,2013-01-11 04:32:00,
2013-01-10 20:42:00,27.0,27.0,-100.00,West,278,8.0,11.0,98,0.04,,,-99.99,,2013-01-11 04:42:00,
2013-01-10 20:53:00,27.0,27.0,-100.00,West,278,8.0,11.0,98,0.04,,,-99.99,,2013-01-11 04:53:00,
2013-01-10 21:03:00,27.0,27.0,-100.00,West,278,8.0,11.0,98,0.04,,,-99.99,,2013-01-11 05:03:00,
2013-01-10 21:12:00,27.0,27.0,-100.00,West,278,8.0,11.0,98,0.04,,,-99.99,,2013-01-11 05:12:00,
2013-01-10 21:22:00,27.0,27.0,-100.00,WNW,288,5.0,9.0,98,0.04,,,-99.99,,2013-01-11 05:22:00,
2013-01-10 21:33:00,27.0,27.0,-100.00,WNW,288,5.0,9.0,98,0.04,,,-99.99,,2013-01-11 05:33:00,
2013-01-10 21:42:00,27.0,27.0,-100.00,NW,305,5.0,6.0,98,0.00,,,-99.99,,2013-01-11 05:42:00,
2013-01-10 21:53:00,27.0,27.0,-100.00,NW,305,5.0,6.0,98,0.00,,,-99.99,,2013-01-11 05:53:00,
2013-01-10 22:02:00,27.0,27.0,-100.00,NW,305,5.0,6.0,98,0.00,,,-99.99,,2013-01-11 06:02:00,
2013-01-10 22:12:00,27.0,27.0,-100.00,NNW,332,3.0,4.0,98,0.04,,,-99.99,,2013-01-11 06:12:00,
2013-01-10 22:22:00,27.0,27.0,-100.00,NNW,332,3.0,4.0,98,0.04,,,-99.99,,2013-01-11 06:22:00,
2013-01-10 22:32:00,27.0,27.0,-100.00,NNW,332,3.0,4.0,98,0.04,,,-99.99,,2013-01-11 06:32:00,
2013-01-10 22:42:00,27.0,27.0,-100.00,NW,313,4.0,6.0,98,0.04,,,-99.99,,2013-01-11 06:42:00,
2013-01-10 22:52:00,27.0,26.0,-100.00,NNW,336,3.0,4.0,98,0.04,,,-99.99,,2013-01-11 06:52:00,
2013-01-10 23:02:00,27.0,26.0,-100.00,NNW,336,3.0,4.0,98,0.04,,,-99.99,,2013-01-11 07:02:00,
2013-01-10 23:12:00,27.0,27.0,-100.00,NW,315,2.0,3.0,98,0.00,,,-99.99,,2013-01-11 07:12:00,
2013-01-10 23:22:00,27.0,27.0,-100.00,NE,44,0.0,1.0,98,0.00,,,-99.99,,2013-01-11 07:22:00,
2013-01-10 23:32:00,27.0,27.0,-100.00,NE,44,0.0,1.0,98,0.00,,,-99.99,,2013-01-11 07:32:00,
2013-01-10 23:42:00,28.0,27.0,-100.00,East,80,4.0,9.0,98,0.00,,,-99.99,,2013-01-11 07:42:00,
2013-01-10 23:52:00,28.0,27.0,-100.00,East,80,4.0,9.0,98,0.00,,,-99.99,,2013-01-11 07:52:00,